"Time","Value","Approval","myLocation"
"2023-05-06 00:00",3.74700914697954,"Approved","OW490"
"2023-05-06 01:00",3.75400914697954,"Approved","OW490"
"2023-05-06 02:00",3.75100914697954,"Approved","OW490"
"2023-05-06 03:00",3.74700914697954,"Approved","OW490"
"2023-05-06 04:00",3.74600914697954,"Approved","OW490"
"2023-05-06 05:00",3.75400914697954,"Approved","OW490"
"2023-05-06 06:00",3.75200914697954,"Approved","OW490"
"2023-05-06 07:00",3.75100914697954,"Approved","OW490"
"2023-05-06 08:00",3.75000914697954,"Approved","OW490"
"2023-05-06 09:00",3.75300914697954,"Approved","OW490"
"2023-05-06 10:00",3.75000914697954,"Approved","OW490"
"2023-05-06 11:00",3.75500914697954,"Approved","OW490"
"2023-05-06 12:00",3.75000914697954,"Approved","OW490"
"2023-05-06 13:00",3.75500914697954,"Approved","OW490"
"2023-05-06 14:00",3.75200914697954,"Approved","OW490"
"2023-05-06 15:00",3.74900914697954,"Approved","OW490"
"2023-05-06 16:00",3.75300914697954,"Approved","OW490"
"2023-05-06 17:00",3.75300914697954,"Approved","OW490"
"2023-05-06 18:00",3.75500914697954,"Approved","OW490"
"2023-05-06 19:00",3.75000914697954,"Approved","OW490"
"2023-05-06 20:00",3.75500914697954,"Approved","OW490"
"2023-05-06 21:00",3.75500914697954,"Approved","OW490"
"2023-05-06 22:00",3.75200914697954,"Approved","OW490"
"2023-05-06 23:00",3.75300914697954,"Approved","OW490"
"2023-05-07 00:00",3.75500914697954,"Approved","OW490"
"2023-05-07 01:00",3.75500914697954,"Approved","OW490"
"2023-05-07 02:00",3.75300914697954,"Approved","OW490"
"2023-05-07 03:00",3.75700914697954,"Approved","OW490"
"2023-05-07 04:00",3.75500914697954,"Approved","OW490"
"2023-05-07 05:00",3.75200914697954,"Approved","OW490"
"2023-05-07 06:00",3.75500914697954,"Approved","OW490"
"2023-05-07 07:00",3.75700914697954,"Approved","OW490"
"2023-05-07 08:00",3.76000914697954,"Approved","OW490"
"2023-05-07 09:00",3.76100914697954,"Approved","OW490"
"2023-05-07 10:00",3.76000914697954,"Approved","OW490"
"2023-05-07 11:00",3.75700914697954,"Approved","OW490"
"2023-05-07 12:00",3.76000914697954,"Approved","OW490"
"2023-05-07 13:00",3.76400914697954,"Approved","OW490"
"2023-05-07 14:00",3.76200914697954,"Approved","OW490"
"2023-05-07 15:00",3.76400914697954,"Approved","OW490"
"2023-05-07 16:00",3.75900914697954,"Approved","OW490"
"2023-05-07 17:00",3.76600914697954,"Approved","OW490"
"2023-05-07 18:00",3.76500914697954,"Approved","OW490"
"2023-05-07 19:00",3.76300914697954,"Approved","OW490"
"2023-05-07 20:00",3.76500914697954,"Approved","OW490"
"2023-05-07 21:00",3.76600914697954,"Approved","OW490"
"2023-05-07 22:00",3.76400914697954,"Approved","OW490"
"2023-05-07 23:00",3.76500914697954,"Approved","OW490"
"2023-05-08 00:00",3.76400914697954,"Approved","OW490"
"2023-05-08 01:00",3.76300914697954,"Approved","OW490"
"2023-05-08 02:00",3.76500914697954,"Approved","OW490"
"2023-05-08 03:00",3.76900914697954,"Approved","OW490"
"2023-05-08 04:00",3.76500914697954,"Approved","OW490"
"2023-05-08 05:00",3.76900914697954,"Approved","OW490"
"2023-05-08 06:00",3.76900914697954,"Approved","OW490"
"2023-05-08 07:00",3.77300914697954,"Approved","OW490"
"2023-05-08 08:00",3.76900914697954,"Approved","OW490"
"2023-05-08 09:00",3.76900914697954,"Approved","OW490"
"2023-05-08 10:00",3.77200914697954,"Approved","OW490"
"2023-05-08 11:00",3.77000914697954,"Approved","OW490"
"2023-05-08 12:00",3.77300914697954,"Approved","OW490"
"2023-05-08 13:00",3.77300914697954,"Approved","OW490"
"2023-05-08 14:00",3.77100914697954,"Approved","OW490"
"2023-05-08 15:00",3.76600914697954,"Approved","OW490"
"2023-05-08 16:00",3.77200914697954,"Approved","OW490"
"2023-05-08 17:00",3.77700914697954,"Approved","OW490"
"2023-05-08 18:00",3.77800914697954,"Approved","OW490"
"2023-05-08 19:00",3.77800914697954,"Approved","OW490"
"2023-05-08 20:00",3.78400914697954,"Approved","OW490"
"2023-05-08 21:00",3.77800914697954,"Approved","OW490"
"2023-05-08 22:00",3.78200914697954,"Approved","OW490"
"2023-05-08 23:00",3.78000914697954,"Approved","OW490"
"2023-05-09 00:00",3.78200914697954,"Approved","OW490"
"2023-05-09 01:00",3.78500914697954,"Approved","OW490"
"2023-05-09 02:00",3.78000914697954,"Approved","OW490"
"2023-05-09 03:00",3.78100914697954,"Approved","OW490"
"2023-05-09 04:00",3.78600914697954,"Approved","OW490"
"2023-05-09 05:00",3.78700914697954,"Approved","OW490"
"2023-05-09 06:00",3.78400914697954,"Approved","OW490"
"2023-05-09 07:00",3.78900914697954,"Approved","OW490"
"2023-05-09 08:00",3.78900914697954,"Approved","OW490"
"2023-05-09 09:00",3.79200914697954,"Approved","OW490"
"2023-05-09 10:00",3.85600914697954,"Approved","OW490"
"2023-05-09 11:00",3.82100914697954,"Approved","OW490"
"2023-05-09 12:00",3.80400914697954,"Approved","OW490"
"2023-05-09 13:00",3.79800914697954,"Approved","OW490"
"2023-05-09 14:00",3.79400914697954,"Approved","OW490"
"2023-05-09 15:00",3.79700914697954,"Approved","OW490"
"2023-05-09 16:00",3.79200914697954,"Approved","OW490"
"2023-05-09 17:00",3.79100914697954,"Approved","OW490"
"2023-05-09 18:00",3.78800914697954,"Approved","OW490"
"2023-05-09 19:00",3.79000914697954,"Approved","OW490"
"2023-05-09 20:00",3.79400914697954,"Approved","OW490"
"2023-05-09 21:00",3.79400914697954,"Approved","OW490"
"2023-05-09 22:00",3.79400914697954,"Approved","OW490"
"2023-05-09 23:00",3.79300914697954,"Approved","OW490"
"2023-05-10 00:00",3.79400914697954,"Approved","OW490"
"2023-05-10 01:00",3.79400914697954,"Approved","OW490"
"2023-05-10 02:00",3.79000914697954,"Approved","OW490"
"2023-05-10 03:00",3.79400914697954,"Approved","OW490"
"2023-05-10 04:00",3.79500914697954,"Approved","OW490"
"2023-05-10 05:00",3.79100914697954,"Approved","OW490"
"2023-05-10 06:00",3.79300914697954,"Approved","OW490"
"2023-05-10 07:00",3.79200914697954,"Approved","OW490"
"2023-05-10 08:00",3.79500914697954,"Approved","OW490"
"2023-05-10 09:00",3.79200914697954,"Approved","OW490"
"2023-05-10 10:00",3.79500914697954,"Approved","OW490"
"2023-05-10 11:00",3.79700914697954,"Approved","OW490"
"2023-05-10 12:00",3.79200914697954,"Approved","OW490"
"2023-05-10 13:00",3.79200914697954,"Approved","OW490"
"2023-05-10 14:00",3.79400914697954,"Approved","OW490"
"2023-05-10 15:00",3.79600914697954,"Approved","OW490"
"2023-05-10 16:00",3.79800914697954,"Approved","OW490"
"2023-05-10 17:00",3.79600914697954,"Approved","OW490"
"2023-05-10 18:00",3.79700914697954,"Approved","OW490"
"2023-05-10 19:00",3.80200914697954,"Approved","OW490"
"2023-05-10 20:00",3.80600914697954,"Approved","OW490"
"2023-05-10 21:00",3.80800914697954,"Approved","OW490"
"2023-05-10 22:00",3.80100914697954,"Approved","OW490"
"2023-05-10 23:00",3.80600914697954,"Approved","OW490"
"2023-05-11 00:00",3.80600914697954,"Approved","OW490"
"2023-05-11 01:00",3.80400914697954,"Approved","OW490"
"2023-05-11 02:00",3.80900914697954,"Approved","OW490"
"2023-05-11 03:00",3.80400914697954,"Approved","OW490"
"2023-05-11 04:00",3.80900914697954,"Approved","OW490"
"2023-05-11 05:00",3.81000914697954,"Approved","OW490"
"2023-05-11 06:00",3.81300914697954,"Approved","OW490"
"2023-05-11 07:00",3.81200914697954,"Approved","OW490"
"2023-05-11 08:00",3.81000914697954,"Approved","OW490"
"2023-05-11 09:00",3.81200914697954,"Approved","OW490"
"2023-05-11 10:00",3.81000914697954,"Approved","OW490"
"2023-05-11 11:00",3.80600914697954,"Approved","OW490"
"2023-05-11 12:00",3.81300914697954,"Approved","OW490"
"2023-05-11 13:00",3.80900914697954,"Approved","OW490"
"2023-05-11 14:00",3.81300914697954,"Approved","OW490"
"2023-05-11 15:00",3.81600914697954,"Approved","OW490"
"2023-05-11 16:00",3.81600914697954,"Approved","OW490"
"2023-05-11 17:00",3.81300914697954,"Approved","OW490"
"2023-05-11 18:00",3.81700914697954,"Approved","OW490"
"2023-05-11 19:00",3.82100914697954,"Approved","OW490"
"2023-05-11 20:00",3.82100914697954,"Approved","OW490"
"2023-05-11 21:00",3.82200914697954,"Approved","OW490"
"2023-05-11 22:00",3.82100914697954,"Approved","OW490"
"2023-05-11 23:00",3.82100914697954,"Approved","OW490"
"2023-05-12 00:00",3.82100914697954,"Approved","OW490"
"2023-05-12 01:00",3.82100914697954,"Approved","OW490"
"2023-05-12 02:00",3.82000914697954,"Approved","OW490"
"2023-05-12 03:00",3.81900914697954,"Approved","OW490"
"2023-05-12 04:00",3.82300914697954,"Approved","OW490"
"2023-05-12 05:00",3.82200914697954,"Approved","OW490"
"2023-05-12 06:00",3.82400914697954,"Approved","OW490"
"2023-05-12 07:00",3.82800914697954,"Approved","OW490"
"2023-05-12 08:00",3.82300914697954,"Approved","OW490"
"2023-05-12 09:00",3.82400914697954,"Approved","OW490"
"2023-05-12 10:00",3.82600914697954,"Approved","OW490"
"2023-05-12 11:00",3.82500914697954,"Approved","OW490"
"2023-05-12 12:00",3.82400914697954,"Approved","OW490"
"2023-05-12 13:00",3.83100914697954,"Approved","OW490"
"2023-05-12 14:00",3.89500914697954,"Approved","OW490"
"2023-05-12 15:00",3.88500914697954,"Approved","OW490"
"2023-05-12 16:00",4.02100914697954,"Approved","OW490"
"2023-05-12 17:00",4.08000914697954,"Approved","OW490"
"2023-05-12 18:00",4.02600914697954,"Approved","OW490"
"2023-05-12 19:00",3.92200914697954,"Approved","OW490"
"2023-05-12 20:00",3.88800914697954,"Approved","OW490"
"2023-05-12 21:00",3.87300914697954,"Approved","OW490"
"2023-05-12 22:00",3.86400914697954,"Approved","OW490"
"2023-05-12 23:00",3.85800914697954,"Approved","OW490"
"2023-05-13 00:00",3.85300914697954,"Approved","OW490"
"2023-05-13 01:00",3.85100914697954,"Approved","OW490"
"2023-05-13 02:00",3.84800914697954,"Approved","OW490"
"2023-05-13 03:00",3.84500914697954,"Approved","OW490"
"2023-05-13 04:00",3.85100914697954,"Approved","OW490"
"2023-05-13 05:00",3.84900914697954,"Approved","OW490"
"2023-05-13 06:00",3.84800914697954,"Approved","OW490"
"2023-05-13 07:00",3.84700914697954,"Approved","OW490"
"2023-05-13 08:00",4.00100914697954,"Approved","OW490"
"2023-05-13 09:00",4.07700914697954,"Approved","OW490"
"2023-05-13 10:00",4.07500914697954,"Approved","OW490"
"2023-05-13 11:00",4.12400914697954,"Approved","OW490"
"2023-05-13 12:00",4.14600914697954,"Approved","OW490"
"2023-05-13 13:00",4.11100914697954,"Approved","OW490"
"2023-05-13 14:00",4.14800914697954,"Approved","OW490"
"2023-05-13 15:00",4.16500914697954,"Approved","OW490"
"2023-05-13 16:00",4.17700914697954,"Approved","OW490"
"2023-05-13 17:00",4.18500914697954,"Approved","OW490"
"2023-05-13 18:00",4.15600914697954,"Approved","OW490"
"2023-05-13 19:00",4.01000914697954,"Approved","OW490"
"2023-05-13 20:00",3.95600914697954,"Approved","OW490"
"2023-05-13 21:00",3.93700914697954,"Approved","OW490"
"2023-05-13 22:00",3.92000914697954,"Approved","OW490"
"2023-05-13 23:00",3.91700914697954,"Approved","OW490"
"2023-05-14 00:00",3.90400914697954,"Approved","OW490"
"2023-05-14 01:00",3.89900914697954,"Approved","OW490"
"2023-05-14 02:00",3.89600914697954,"Approved","OW490"
"2023-05-14 03:00",3.89200914697954,"Approved","OW490"
"2023-05-14 04:00",3.88900914697954,"Approved","OW490"
"2023-05-14 05:00",3.88500914697954,"Approved","OW490"
"2023-05-14 06:00",3.88400914697954,"Approved","OW490"
"2023-05-14 07:00",3.88500914697954,"Approved","OW490"
"2023-05-14 08:00",3.87900914697954,"Approved","OW490"
"2023-05-14 09:00",3.88100914697954,"Approved","OW490"
"2023-05-14 10:00",3.87800914697954,"Approved","OW490"
"2023-05-14 11:00",3.88000914697954,"Approved","OW490"
"2023-05-14 12:00",3.87800914697954,"Approved","OW490"
"2023-05-14 13:00",4.00000914697954,"Approved","OW490"
"2023-05-14 14:00",4.11400914697954,"Approved","OW490"
"2023-05-14 15:00",4.11700914697954,"Approved","OW490"
"2023-05-14 16:00",4.17200914697954,"Approved","OW490"
"2023-05-14 17:00",4.19500914697954,"Approved","OW490"
"2023-05-14 18:00",4.20200914697954,"Approved","OW490"
"2023-05-14 19:00",4.19700914697954,"Approved","OW490"
"2023-05-14 20:00",4.04400914697954,"Approved","OW490"
"2023-05-14 21:00",3.98600914697954,"Approved","OW490"
"2023-05-14 22:00",3.95800914697954,"Approved","OW490"
"2023-05-14 23:00",3.94400914697954,"Approved","OW490"
"2023-05-15 00:00",3.93200914697954,"Approved","OW490"
"2023-05-15 01:00",3.92600914697954,"Approved","OW490"
"2023-05-15 02:00",3.92100914697954,"Approved","OW490"
"2023-05-15 03:00",3.91900914697954,"Approved","OW490"
"2023-05-15 04:00",3.91700914697954,"Approved","OW490"
"2023-05-15 05:00",3.91400914697954,"Approved","OW490"
"2023-05-15 06:00",3.91600914697954,"Approved","OW490"
"2023-05-15 07:00",4.10100914697954,"Approved","OW490"
"2023-05-15 08:00",4.15400914697954,"Approved","OW490"
"2023-05-15 09:00",4.16000914697954,"Approved","OW490"
"2023-05-15 10:00",4.06100914697954,"Approved","OW490"
"2023-05-15 11:00",4.17400914697954,"Approved","OW490"
"2023-05-15 12:00",4.17600914697954,"Approved","OW490"
"2023-05-15 13:00",4.21300914697954,"Approved","OW490"
"2023-05-15 14:00",4.23000914697954,"Approved","OW490"
"2023-05-15 15:00",4.23800914697954,"Approved","OW490"
"2023-05-15 16:00",4.22000914697954,"Approved","OW490"
"2023-05-15 17:00",4.23800914697954,"Approved","OW490"
"2023-05-15 18:00",4.21500914697954,"Approved","OW490"
"2023-05-15 19:00",4.25300914697954,"Approved","OW490"
"2023-05-15 20:00",4.13300914697954,"Approved","OW490"
"2023-05-15 21:00",4.04800914697954,"Approved","OW490"
"2023-05-15 22:00",4.01200914697954,"Approved","OW490"
"2023-05-15 23:00",3.99600914697954,"Approved","OW490"
"2023-05-16 00:00",3.98300914697954,"Approved","OW490"
"2023-05-16 01:00",3.97800914697954,"Approved","OW490"
"2023-05-16 02:00",3.96800914697954,"Approved","OW490"
"2023-05-16 03:00",3.96300914697954,"Approved","OW490"
"2023-05-16 04:00",3.96200914697954,"Approved","OW490"
"2023-05-16 05:00",3.95800914697954,"Approved","OW490"
"2023-05-16 06:00",3.95400914697954,"Approved","OW490"
"2023-05-16 07:00",3.95500914697954,"Approved","OW490"
"2023-05-16 08:00",3.95400914697954,"Approved","OW490"
"2023-05-16 09:00",3.95900914697954,"Approved","OW490"
"2023-05-16 10:00",3.95000914697954,"Approved","OW490"
"2023-05-16 11:00",3.95200914697954,"Approved","OW490"
"2023-05-16 12:00",3.94600914697954,"Approved","OW490"
"2023-05-16 13:00",4.05200914697954,"Approved","OW490"
"2023-05-16 14:00",4.16800914697954,"Approved","OW490"
"2023-05-16 15:00",4.21200914697954,"Approved","OW490"
"2023-05-16 16:00",4.17600914697954,"Approved","OW490"
"2023-05-16 17:00",4.23100914697954,"Approved","OW490"
"2023-05-16 18:00",4.25800914697954,"Approved","OW490"
"2023-05-16 19:00",4.26800914697954,"Approved","OW490"
"2023-05-16 20:00",4.12000914697954,"Approved","OW490"
"2023-05-16 21:00",4.04700914697954,"Approved","OW490"
"2023-05-16 22:00",4.01200914697954,"Approved","OW490"
"2023-05-16 23:00",3.99600914697954,"Approved","OW490"
"2023-05-17 00:00",3.98900914697954,"Approved","OW490"
"2023-05-17 01:00",3.98000914697954,"Approved","OW490"
"2023-05-17 02:00",3.97300914697954,"Approved","OW490"
"2023-05-17 03:00",3.97000914697954,"Approved","OW490"
"2023-05-17 04:00",3.96900914697954,"Approved","OW490"
"2023-05-17 05:00",4.13500914697954,"Approved","OW490"
"2023-05-17 06:00",4.21400914697954,"Approved","OW490"
"2023-05-17 07:00",4.17600914697954,"Approved","OW490"
"2023-05-17 08:00",4.24200914697954,"Approved","OW490"
"2023-05-17 09:00",4.19900914697954,"Approved","OW490"
"2023-05-17 10:00",4.25300914697954,"Approved","OW490"
"2023-05-17 11:00",4.27400914697954,"Approved","OW490"
"2023-05-17 12:00",4.28800914697954,"Approved","OW490"
"2023-05-17 13:00",4.23800914697954,"Approved","OW490"
"2023-05-17 14:00",4.28000914697954,"Approved","OW490"
"2023-05-17 15:00",4.22900914697954,"Approved","OW490"
"2023-05-17 16:00",4.28400914697954,"Approved","OW490"
"2023-05-17 17:00",4.22600914697954,"Approved","OW490"
"2023-05-17 18:00",4.21600914697954,"Approved","OW490"
"2023-05-17 19:00",4.26200914697954,"Approved","OW490"
"2023-05-17 20:00",4.22700914697954,"Approved","OW490"
"2023-05-17 21:00",4.11100914697954,"Approved","OW490"
"2023-05-17 22:00",4.06400914697954,"Approved","OW490"
"2023-05-17 23:00",4.04100914697954,"Approved","OW490"
"2023-05-18 00:00",4.02900914697954,"Approved","OW490"
"2023-05-18 01:00",4.01500914697954,"Approved","OW490"
"2023-05-18 02:00",4.00900914697954,"Approved","OW490"
"2023-05-18 03:00",4.00000914697954,"Approved","OW490"
"2023-05-18 04:00",3.99700914697954,"Approved","OW490"
"2023-05-18 05:00",4.05000914697954,"Approved","OW490"
"2023-05-18 06:00",4.19700914697954,"Approved","OW490"
"2023-05-18 07:00",4.25700914697954,"Approved","OW490"
"2023-05-18 08:00",4.23800914697954,"Approved","OW490"
"2023-05-18 09:00",4.28000914697954,"Approved","OW490"
"2023-05-18 10:00",4.30600914697954,"Approved","OW490"
"2023-05-18 11:00",4.31800914697954,"Approved","OW490"
"2023-05-18 12:00",4.32500914697954,"Approved","OW490"
"2023-05-18 13:00",4.29400914697954,"Approved","OW490"
"2023-05-18 14:00",4.32000914697954,"Approved","OW490"
"2023-05-18 15:00",4.33100914697954,"Approved","OW490"
"2023-05-18 16:00",4.30300914697954,"Approved","OW490"
"2023-05-18 17:00",4.33500914697954,"Approved","OW490"
"2023-05-18 18:00",4.34300914697954,"Approved","OW490"
"2023-05-18 19:00",4.35400914697954,"Approved","OW490"
"2023-05-18 20:00",4.25600914697954,"Approved","OW490"
"2023-05-18 21:00",4.15000914697954,"Approved","OW490"
"2023-05-18 22:00",4.10400914697954,"Approved","OW490"
"2023-05-18 23:00",4.07700914697954,"Approved","OW490"
"2023-05-19 00:00",4.05900914697954,"Approved","OW490"
"2023-05-19 01:00",4.05300914697954,"Approved","OW490"
"2023-05-19 02:00",4.04700914697954,"Approved","OW490"
"2023-05-19 03:00",4.04200914697954,"Approved","OW490"
"2023-05-19 04:00",4.03700914697954,"Approved","OW490"
"2023-05-19 05:00",4.03600914697954,"Approved","OW490"
"2023-05-19 06:00",4.03000914697954,"Approved","OW490"
"2023-05-19 07:00",4.02700914697954,"Approved","OW490"
"2023-05-19 08:00",4.02900914697954,"Approved","OW490"
"2023-05-19 09:00",4.02700914697954,"Approved","OW490"
"2023-05-19 10:00",4.02000914697954,"Approved","OW490"
"2023-05-19 11:00",4.01500914697954,"Approved","OW490"
"2023-05-19 12:00",4.01100914697954,"Approved","OW490"
"2023-05-19 13:00",4.01300914697954,"Approved","OW490"
"2023-05-19 14:00",4.00800914697954,"Approved","OW490"
"2023-05-19 15:00",4.01300914697954,"Approved","OW490"
"2023-05-19 16:00",4.00800914697954,"Approved","OW490"
"2023-05-19 17:00",4.01000914697954,"Approved","OW490"
"2023-05-19 18:00",4.00800914697954,"Approved","OW490"
"2023-05-19 19:00",4.00400914697954,"Approved","OW490"
"2023-05-19 20:00",4.00300914697954,"Approved","OW490"
"2023-05-19 21:00",4.00400914697954,"Approved","OW490"
"2023-05-19 22:00",4.00100914697954,"Approved","OW490"
"2023-05-19 23:00",3.99700914697954,"Approved","OW490"
"2023-05-20 00:00",3.99900914697954,"Approved","OW490"
"2023-05-20 01:00",3.99400914697954,"Approved","OW490"
"2023-05-20 02:00",3.99800914697954,"Approved","OW490"
"2023-05-20 03:00",3.99800914697954,"Approved","OW490"
"2023-05-20 04:00",3.99500914697954,"Approved","OW490"
"2023-05-20 05:00",3.99700914697954,"Approved","OW490"
"2023-05-20 06:00",3.99700914697954,"Approved","OW490"
"2023-05-20 07:00",3.99400914697954,"Approved","OW490"
"2023-05-20 08:00",4.15800914697954,"Approved","OW490"
"2023-05-20 09:00",4.23600914697954,"Approved","OW490"
"2023-05-20 10:00",4.27200914697954,"Approved","OW490"
"2023-05-20 11:00",4.29200914697954,"Approved","OW490"
"2023-05-20 12:00",4.30800914697954,"Approved","OW490"
"2023-05-20 13:00",4.28600914697954,"Approved","OW490"
"2023-05-20 14:00",4.31800914697954,"Approved","OW490"
"2023-05-20 15:00",4.32500914697954,"Approved","OW490"
"2023-05-20 16:00",4.33900914697954,"Approved","OW490"
"2023-05-20 17:00",4.32000914697954,"Approved","OW490"
"2023-05-20 18:00",4.33800914697954,"Approved","OW490"
"2023-05-20 19:00",4.35100914697954,"Approved","OW490"
"2023-05-20 20:00",4.19400914697954,"Approved","OW490"
"2023-05-20 21:00",4.12300914697954,"Approved","OW490"
"2023-05-20 22:00",4.09100914697954,"Approved","OW490"
"2023-05-20 23:00",4.07400914697954,"Approved","OW490"
"2023-05-21 00:00",4.06100914697954,"Approved","OW490"
"2023-05-21 01:00",4.05400914697954,"Approved","OW490"
"2023-05-21 02:00",4.04600914697954,"Approved","OW490"
"2023-05-21 03:00",4.04300914697954,"Approved","OW490"
"2023-05-21 04:00",4.03900914697954,"Approved","OW490"
"2023-05-21 05:00",4.03600914697954,"Approved","OW490"
"2023-05-21 06:00",4.03200914697954,"Approved","OW490"
"2023-05-21 07:00",4.08400914697954,"Approved","OW490"
"2023-05-21 08:00",4.23300914697954,"Approved","OW490"
"2023-05-21 09:00",4.22100914697954,"Approved","OW490"
"2023-05-21 10:00",4.28000914697954,"Approved","OW490"
"2023-05-21 11:00",4.31900914697954,"Approved","OW490"
"2023-05-21 12:00",4.27500914697954,"Approved","OW490"
"2023-05-21 13:00",4.32500914697954,"Approved","OW490"
"2023-05-21 14:00",4.34500914697954,"Approved","OW490"
"2023-05-21 15:00",4.27600914697954,"Approved","OW490"
"2023-05-21 16:00",4.33200914697954,"Approved","OW490"
"2023-05-21 17:00",4.35400914697954,"Approved","OW490"
"2023-05-21 18:00",4.22500914697954,"Approved","OW490"
"2023-05-21 19:00",4.14300914697954,"Approved","OW490"
"2023-05-21 20:00",4.10700914697954,"Approved","OW490"
"2023-05-21 21:00",4.09000914697954,"Approved","OW490"
"2023-05-21 22:00",4.07800914697954,"Approved","OW490"
"2023-05-21 23:00",4.06700914697954,"Approved","OW490"
"2023-05-22 00:00",4.05800914697954,"Approved","OW490"
"2023-05-22 01:00",4.05100914697954,"Approved","OW490"
"2023-05-22 02:00",4.04700914697954,"Approved","OW490"
"2023-05-22 03:00",4.04200914697954,"Approved","OW490"
"2023-05-22 04:00",4.03300914697954,"Approved","OW490"
"2023-05-22 05:00",4.03800914697954,"Approved","OW490"
"2023-05-22 06:00",4.03300914697954,"Approved","OW490"
"2023-05-22 07:00",4.03100914697954,"Approved","OW490"
"2023-05-22 08:00",4.16600914697954,"Approved","OW490"
"2023-05-22 09:00",4.10800914697954,"Approved","OW490"
"2023-05-22 10:00",4.06200914697954,"Approved","OW490"
"2023-05-22 11:00",4.04000914697954,"Approved","OW490"
"2023-05-22 12:00",4.03600914697954,"Approved","OW490"
"2023-05-22 13:00",4.03100914697954,"Approved","OW490"
"2023-05-22 14:00",4.02700914697954,"Approved","OW490"
"2023-05-22 15:00",4.02900914697954,"Approved","OW490"
"2023-05-22 16:00",4.02400914697954,"Approved","OW490"
"2023-05-22 17:00",4.02200914697954,"Approved","OW490"
"2023-05-22 18:00",4.01500914697954,"Approved","OW490"
"2023-05-22 19:00",4.01600914697954,"Approved","OW490"
"2023-05-22 20:00",4.01600914697954,"Approved","OW490"
"2023-05-22 21:00",4.01100914697954,"Approved","OW490"
"2023-05-22 22:00",4.01100914697954,"Approved","OW490"
"2023-05-22 23:00",4.00800914697954,"Approved","OW490"
"2023-05-23 00:00",4.00800914697954,"Approved","OW490"
"2023-05-23 01:00",4.00700914697954,"Approved","OW490"
"2023-05-23 02:00",4.00400914697954,"Approved","OW490"
"2023-05-23 03:00",3.99800914697954,"Approved","OW490"
"2023-05-23 04:00",3.99600914697954,"Approved","OW490"
"2023-05-23 05:00",3.99300914697954,"Approved","OW490"
"2023-05-23 06:00",3.99700914697954,"Approved","OW490"
"2023-05-23 07:00",3.99700914697954,"Approved","OW490"
"2023-05-23 08:00",3.99500914697954,"Approved","OW490"
"2023-05-23 09:00",3.99100914697954,"Approved","OW490"
"2023-05-23 10:00",3.99400914697954,"Approved","OW490"
"2023-05-23 11:00",3.99200914697954,"Approved","OW490"
"2023-05-23 12:00",3.99300914697954,"Approved","OW490"
"2023-05-23 13:00",3.99300914697954,"Approved","OW490"
"2023-05-23 14:00",3.99300914697954,"Approved","OW490"
"2023-05-23 15:00",3.99000914697954,"Approved","OW490"
"2023-05-23 16:00",3.99200914697954,"Approved","OW490"
"2023-05-23 17:00",3.99300914697954,"Approved","OW490"
"2023-05-23 18:00",3.99300914697954,"Approved","OW490"